Regional Weather Roundup
Issued by NWS Wakefield, VA

Home | Current Version | Previous Version | Text Only | Print | Product List | Glossary Off
Versions: 1 2 3 4 5 6 7 8 9 10 11 12 13 14 15 16 17 18 19 20 21 22 23 24 25 26 27 28 29 30 31 32 33 34 35 36 37 38 39 40 41 42 43 44 45 46 47 48 49 50

000
ASUS41 KAKQ 270410
RWRAKQ

REGIONAL WEATHER ROUNDUP
NATIONAL WEATHER SERVICE WAKEFIELD VA
1100 PM EST THU FEB 26 2015

Note: "fair" indicates few or no clouds below 12,000 feet with no
significant weather and/or obstructions to visibility. * = Denotes
station may not report precipitation (e.g., rain,snow,etc.),
thunder or fog.

VAZ042-051-052>054-056-270500-
NORTHERN VIRGINIA

CITY           SKY/WX    TMP DP  RH WIND       PRES   REMARKS
WASH NATIONAL  CLOUDY    33  22  63 SE5       30.15R
DULLES         CLOUDY    30  23  75 CALM      30.12R
FORT BELVOIR   CLOUDY    31  25  79 CALM      30.15R
QUANTICO       CLOUDY    32  25  75 CALM      30.16R
FREDERICKSBRG* CLOUDY    30  28  91 CALM      30.13R
STAFFORD*      CLOUDY    29  26  88 CALM      30.17R
WARRENTON      CLOUDY    30  30 100 CALM      30.12R
CULPEPER*      MOCLDY    30  27  86 CALM      30.13R
MANASSAS*      CLOUDY    28  28 100 CALM      30.14R
LEESBURG*      CLOUDY    32  27  80 CALM      30.13R
WINCHESTER     PTCLDY    27  21  80 CALM      30.10R
FRONT ROYAL*   CLOUDY    28  25  86 W3        30.09R
LURAY*         CLOUDY    32  28  86 CALM      30.09R
$$

VAZ048-049-060>072-079>083-270500-
CENTRAL AND SOUTH CENTRAL VIRGINIA

CITY           SKY/WX    TMP DP  RH WIND       PRES   REMARKS
RICHMOND       FOG       26  23  88 CALM      30.13R VSB 1
CHESTERFIELD*  MOCLDY    23  10  58 CALM      30.15R
PETERSBURG*    MOCLDY   N/A N/A N/A CALM      30.14R FOG
HANOVER        CLEAR     26  23  88 E3        30.14S FOG
TAPPAHANNOCK*  CLEAR     26  23  89 CALM      30.14R FOG
QUINTON*       MOCLDY    26  25  98 CALM      30.14R VSB 1/4
CHARLOTTSVILLE CLOUDY    33  26  75 S5        30.10R
GORDONSVILLE*  CLOUDY    28  26  90 CALM      30.11R
ORANGE*        CLOUDY    32  28  86 CALM      30.13R
LOUISA*        CLOUDY    30  28  93 CALM      30.11R
BUMPASS*       CLOUDY    27  26  94 CALM      30.12R
FARMVILLE*     MOCLDY    25  25 100 CALM      30.12R FOG
CREWE*         MOCLDY    25  24  95 CALM      30.13R VSB 1
FORT PICKETT*  CLOUDY    24  23  98 S7        30.13R VSB<1/4
CHASE CITY*    FAIR      25  25 100 CALM      30.14R
CLARKSVILLE*   FAIR      27  27 100 CALM      30.14R
SOUTH HILL*      N/A     25  25  99 CALM      30.20R VSB 1/4
LAWRENCEVILLE* MOCLDY    27  27  99 CALM      30.13R VSB 1/4
EMPORIA*       FOG       25  25 100 CALM      30.16R VSB 1/4
$$

VAZ088>098-270500-
SOUTHEAST VIRGINIA

CITY           SKY/WX    TMP DP  RH WIND       PRES   REMARKS
NORFOLK        PTCLDY    31  26  82 N6        30.13R
VIRGINIA BEACH PTCLDY    32  29  88 N6        30.13R
NORFOLK NAVAL  PTCLDY    33  27  78 N5        30.15R
WEST POINT*      N/A     24  22  90 CALM      30.15F VSB 1/4
SALUDA*        FAIR      23  22  96 CALM      30.13S
NEWPORT NEWS   FOG       29  25  85 CALM      30.14R VSB 1/4
LANGLEY AFB    CLEAR     29  26  88 CALM      30.14R
FORT EUSTIS    FOG       27  27 100 CALM      30.12R VSB 1/4
WILLIAMSBURG*    N/A     30  28  93 CALM      30.14S
HR EXEC AP*    FAIR      28  25  86 CALM      30.16R
FRANKLIN*      CLEAR     29  28  98 CALM      30.16R FOG
WAKEFIELD      FOG       27  24  89 CALM      30.14R VSB 1/4
$$

VAZ020-022-025-037-045-270500-
WEST CENTRAL AND SOUTHWEST VIRGINIA

CITY           SKY/WX    TMP DP  RH WIND       PRES   REMARKS
STAUNTON*      CLOUDY    32  26  78 CALM      30.09R
WAYNESBORO*    CLOUDY    31  26  83 CALM      30.06R
HOT SPRINGS VA PTCLDY    21  14  74 W12       29.93S WCI  10
LYNCHBURG      MOCLDY    30  28  92 S3        30.11R
DANVILLE       CLOUDY    29  27  92 CALM      30.14R FOG
SOUTH BOSTON*  CLOUDY    27  26  95 CALM      30.15R VSB 1/4
MARTINSVILLE   PTCLDY    31  31 100 CALM      30.14R FOG
ROANOKE        MOCLDY    35  22  58 NW9       30.11R
BLACKSBURG     MOCLDY    28  20  71 CALM      30.09R
DUBLIN*        CLOUDY    30  24  78 W5        30.08R
MARION*        CLOUDY    29  25  85 SW3       30.09R
HILLSVILLE*    MOCLDY    28  24  86 W6        30.05R
RICHLANDS*     CLOUDY    27  19  73 NW8       30.08R
WISE*          CLOUDY    28  18  64 NW6       30.11R
ABINGDON*      CLOUDY    32  31  97 W6        30.11R FOG
$$

MDZ021>025-VAZ099-100-270500-
SOUTHERN MARYLAND AND THE DELMARVA PENINSULA

CITY           SKY/WX    TMP DP  RH WIND       PRES   REMARKS
PATUXENT RIVER PTCLDY    20  17  88 CALM      30.13R
BAY BRIDGE APT   N/A     28  21  74 CALM      30.14S
LEONARDTOWN    PTCLDY    23  21  93 CALM      30.14S
DOVER          CLEAR     23  22  95 CALM      30.14S
GEORGETOWN     PTCLDY    20  14  77 CALM      30.14R
EASTON         MOCLDY    24  22  90 SE3       30.17F
CAMBRIDGE      CLEAR     23  21  93 CALM      30.14R
SALISBURY      FOG       20  16  84 CALM      30.13R VSB 1/4
OCEAN CITY     PTCLDY    18  16  92 N3        30.13S
WALLOPS ISLAND CLEAR     23  21  92 CALM      30.13S
ACCOMACK*      CLEAR     27  25  93 N3        30.12S FOG
$$

NCZ012>017-030>032-270500-
NORTH CENTRAL AND EASTERN NORTH CAROLINA

CITY           SKY/WX    TMP DP  RH WIND       PRES   REMARKS
ROANOKE RAPIDS FAIR      30  30 100 CALM      30.16R FOG
RALEIGH        MOCLDY    28  27  93 CALM      30.16R FOG
ELIZABETH CITY NOT AVBL
AHOSKIE*         N/A     30  29  96 CALM      30.16R FOG
EDENTON*       CLOUDY    32  29  89 N3        30.14R
CURRITUCK*     CLOUDY    32  28  83 N6        30.13R
KILL DEVIL HLS CLOUDY    33  30  88 N6G18     30.10R
MANTEO         CLOUDY    34  28  80 N14       30.11S WCI  24
CAPE HATTERAS  CLOUDY    34  31  88 N10G24    30.08S
TARBORO*       CLOUDY    32  31  96 CALM      30.17R FOG
GOLDSBORO      NOT AVBL
WASHINGTON     CLOUDY    33  31  94 CALM      30.15R
GREENVILLE     CLOUDY    34  32  93 CALM      30.17R
NEW BERN       CLOUDY    35  31  85 N3        30.16R
WILMINGTON     CLOUDY    37  32  82 N7        30.15R
$$

VAZ048-270500-
ELSEWHERE

CITY           SKY/WX    TMP DP  RH WIND       PRES   REMARKS
HARRISBURG PA  CLOUDY    27  15  61 NW5       30.12S
BALTIMORE      CLOUDY    28  22  78 CALM      30.13R
ANNAPOLIS      CLOUDY    28  22  78 CALM      30.14R
ANDREWS AFB    CLOUDY    28  24  86 CALM      30.13R
PHILADELPHIA   MOCLDY    27  15  61 NW3       30.15R
HENDERSON NC   CLEAR     26  24  95 CALM      30.14R FOG
GREENSBORO     CLOUDY    31  28  89 SW3       30.12R FOG
ROCKY MOUNT    CLOUDY    33  31  92 CALM      30.16R FOG
$$

VAZ100-270500-
MARINE

STATION/POSITION TIME  TEMP    WIND        PRES    WAVE   SWELL
                       AIR SEA DIR/SP/G            HT/PER HT/PER
                 (UTC) (F)     (DEG/KT/KT) (MB)    (FT/S) (FT/S)
BRANDYWINE LGT   0400   28 29   30/  2/  2 1020.5
CAPE MAY NJ      0400   25 32   20/  1/  2 1020.0F
LEWES DE         0400   27 30  320/  3/  3 1020.3R
15NM E FENWICK I 0400   31 36              1019.5R   7/ 8
OCEAN-CITY-INLET 0400   27 31   10/  4/  5 1019.7R
WACHAPREAGUE VA  0400   27 32   20/  1/  3 1020.0S
THOMAS POINT MD  0400   30 31   CALM  /  1 1021.8R
COVE POINT MD    0400   28      90/  2/  2 1020.3S
SOLOMONS ISLAND  0400      32                N/A
BISHOPS HEAD MD  0400   28 31  360/  3/  5 1020.0S
CAMBRIDGE MD     0400   24 32     CALM     1020.7R
LEWISETTA VA     0400             CALM     1019.9F
RAPPAHANNOCK LGT 0400           10/  7/  7 1020.4S
STINGRAY PT      0400   31      10/  6/  6   N/A
YORK RVR RNG VA  0400   31      10/  5/  6 1019.7R
YORKTOWN VA      0400   31 33  330/  3/  3 1019.9R
DOMINION TERM VA 0400   31     360/  1/  2 1020.5R
KIPTOPEKE VA     0400           20/  3/  5   N/A
CHES BAY BRIDGE  0400   31 32  350/  6/  7 1019.7R
CAPE HENRY VA    0400   30      10/ 10/ 12 1018.8R
CHESAPEAKE LGHT  0300   32      20/ 15/ 17 1019.5R
WILLOUBY STN VA  0400          350/  3/  3 1020.9R
S CRANEY ISL VA  0400          360/  6/  7 1020.4R
CAPE HENRY BUOY  0400      35                N/A     7/10   2/11
1ST LANDING BUOY 0400   31     360/  8/ 10 1019.8R
OFFSHORE WE BUOY 0400      38                N/A     9/10   8/10
64NM E OF VA BCH 0400   42 60   20/ 19/ 25 1017.5R  13/10  11/10
DUCK PIER NC     0400   33 34   10/ 14/ 20 1018.7R
44100 DUCK FRF   0300      37                N/A    10/ 9   3/11
44056 DUCK FRF   0400      35                N/A     9/10   3/11
OREGON INLET NC  0400   33 37  350/ 11/ 19 1018.9R
HATTERAS NC      0400   35 40   10/ 23/ 27 1018.7F
CAPE LOOKOUT NC  0300   36     360/ 14/ 17 1019.0R
$$



USA.gov is the U.S. government's official web portal to all federal, state and local government web resources and services.